• Join FlightAware (Why Join?)
  • Login
  • US Flag 
08:25PM EDT


 

Airport Tracker/Info


-or-


 

Live Flight TrackerFlight Track Log ✈ SWA1729 ✈ 17-Apr-2013 ✈ KBNA - KHOU

Flight Track Log - Related Links

Times and Time Zones

All times are in EDT time to prevent confusion due to time zone crossing. See the SWA1729 flight status page for this flight to view local times or setup timezone preferences in your user account.

Time Position Orientation Groundspeed Altitude Reporting Facility
EDT Latitude Longitude Course Direction KTS MPH feet Rate Location/Type
07:22PM 36.1000 -86.6833 238° Southwest 164 189 1,300  Level Nashville TRACON
07:23PM 36.0833 -86.7167 238° Southwest 193 222 2,100 2,520 Climbing Nashville TRACON
07:24PM 36.0833 -86.7833 270° West 243 280 5,100 2,940 Climbing Nashville TRACON
07:26PM 36.0914 -86.9692 273° West 270 311 10,800 2,640 Climbing Memphis Center
07:27PM 36.0947 -87.0922 272° West 299 344 13,000 2,520 Climbing Memphis Center
07:28PM 36.0978 -87.2103 272° West 339 390 15,900 2,580 Climbing Memphis Center
07:29PM 36.0778 -87.3317 259° West 350 403 18,200 2,160 Climbing Memphis Center
07:30PM 36.0517 -87.4558 255° West 363 418 20,300 1,980 Climbing Memphis Center
07:31PM 36.0253 -87.5853 256° West 378 435 22,200 1,860 Climbing Memphis Center
07:32PM 35.9989 -87.7144 256° West 389 448 24,100 1,800 Climbing Memphis Center
07:33PM 35.9706 -87.8511 256° West 401 461 25,800 1,680 Climbing Memphis Center
07:34PM 35.9439 -87.9853 256° West 406 467 27,500 1,500 Climbing Memphis Center
07:35PM 35.9192 -88.1092 256° West 411 473 28,900 1,620 Climbing Memphis Center
07:36PM 35.8922 -88.2381 256° West 406 467 30,800 1,560 Climbing Memphis Center
07:37PM 35.8653 -88.3692 256° West 401 461 32,100 1,200 Climbing Memphis Center
07:38PM 35.8361 -88.5133 256° West 396 456 33,300 1,200 Climbing Memphis Center
07:39PM 35.8089 -88.6472 256° West 396 456 34,500 1,200 Climbing Memphis Center
07:40PM 35.7836 -88.7781 257° West 396 456 35,700 720 Climbing Memphis Center
07:41PM 35.7581 -88.9092 257° West 396 456 36,000 120 Climbing Memphis Center
07:42PM 35.7158 -89.0350 248° West 396 456 36,000  Level Memphis Center
07:43PM 35.6458 -89.1383 230° Southwest 396 456 36,000  Level Memphis Center
07:44PM 35.5697 -89.2392 227° Southwest 408 470 36,000  Level Memphis Center
07:45PM 35.4933 -89.3447 228° Southwest 408 470 36,000  Level Memphis Center
07:46PM 35.4192 -89.4450 228° Southwest 413 475 36,000  Level Memphis Center
07:47PM 35.3406 -89.5503 228° Southwest 413 475 36,000  Level Memphis Center
07:48PM 35.2661 -89.6525 228° Southwest 413 475 36,000  Level Memphis Center
07:49PM 35.1894 -89.7575 228° Southwest 413 475 36,000  Level Memphis Center
07:50PM 35.1147 -89.8594 228° Southwest 413 475 36,000  Level Memphis Center
07:51PM 35.0381 -89.9614 227° Southwest 413 475 36,000  Level Memphis Center
07:52PM 34.9506 -90.0506 220° Southwest 407 468 36,000  Level Memphis Center
07:53PM 34.8589 -90.1344 217° Southwest 412 474 36,000  Level Memphis Center
07:54PM 34.7694 -90.2156 217° Southwest 412 474 36,000  Level Memphis Center
07:55PM 34.6797 -90.2964 217° Southwest 407 468 36,000  Level Memphis Center
07:56PM 34.5922 -90.3772 217° Southwest 407 468 36,000  Level Memphis Center
07:57PM 34.5003 -90.4581 216° Southwest 407 468 36,000  Level Memphis Center
07:58PM 34.4106 -90.5383 216° Southwest 407 468 36,000  Level Memphis Center
07:59PM 34.3206 -90.6211 217° Southwest 407 468 36,000  Level Memphis Center
08:00PM 34.2411 -90.6939 217° Southwest 407 468 36,000  Level Memphis Center
08:01PM 34.1492 -90.7739 216° Southwest 412 474 36,000  Level Memphis Center
08:02PM 34.0592 -90.8586 218° Southwest 412 474 36,000  Level Memphis Center
08:03PM 33.9689 -90.9408 217° Southwest 412 474 36,000  Level Memphis Center
08:04PM 33.8747 -91.0203 215° Southwest 417 480 36,000  Level Memphis Center
08:05PM 33.7781 -91.1094 217° Southwest 412 474 36,000  Level Memphis Center
08:06PM 33.6836 -91.1961 217° Southwest 420 483 36,000  Level Memphis Center
08:07PM 33.5933 -91.2725 215° Southwest 415 478 36,000  Level Memphis Center
08:08PM 33.4989 -91.3586 217° Southwest 415 478 36,000 -360 Level Memphis Center
08:10PM 33.3172 -91.5225 217° Southwest 414 476 35,000 -660 Descending Fort Worth Center
08:11PM 33.2292 -91.6003 216° Southwest 414 476 34,000 -540 Descending Fort Worth Center
08:12PM 33.1406 -91.6731 215° Southwest 401 461 34,000  Level Fort Worth Center
08:13PM 33.0522 -91.7481 215° Southwest 396 456 34,000  Level Fort Worth Center
08:14PM 32.9700 -91.8228 217° Southwest 389 448 34,000 -120 Level Fort Worth Center
08:15PM 32.8797 -91.9025 217° Southwest 396 456 33,800 -600 Descending Fort Worth Center
08:16PM 32.7911 -91.9797 216° Southwest 401 461 32,900 -900 Descending Fort Worth Center
08:17PM 32.6942 -92.0569 214° Southwest 408 470 32,000 -480 Descending Fort Worth Center
08:18PM 32.6019 -92.1414 218° Southwest 419 482 32,000  Level Fort Worth Center
08:20PM 32.4567 -92.2653 216° Southwest 404 465 32,000  Level Houston Center
08:21PM 32.3681 -92.3406 216° Southwest 395 455 32,000  Level Houston Center
08:22PM 32.2806 -92.4164 216° Southwest 392 451 32,000  Level Houston Center
08:23PM 32.1772 -92.5036 216° Southwest 384 442 32,000  Level Houston Center
08:24PM 32.0906 -92.5772 216° Southwest 383 441 32,000  Level Houston Center
08:25PM 32.0039 -92.6525 216° Southwest 386 444 32,000  Level Houston Center
08:26PM 31.9272 -92.7367 223° Southwest 382 440 32,000  Level Houston Center
08:27PM 31.8561 -92.8278 227° Southwest 377 434 32,000  Level Houston Center
08:28PM 31.7683 -92.9392 227° Southwest 385 443 32,000  Level Houston Center
08:29PM 31.6972 -93.0308 228° Southwest 385 443 32,000  Level Houston Center
08:30PM 31.6228 -93.1233 227° Southwest 390 449 32,000  Level Houston Center
08:31PM 31.5500 -93.2175 228° Southwest 391 450 32,000  Level Houston Center
08:32PM 31.4761 -93.3108 227° Southwest 392 451 32,000  Level Houston Center
08:33PM 31.3850 -93.4242 227° Southwest 398 458 32,000  Level Houston Center
08:34PM 31.3089 -93.5183 227° Southwest 400 460 32,000  Level Houston Center
08:35PM 31.2272 -93.6194 227° Southwest 403 464 32,000  Level Houston Center
08:36PM 31.1503 -93.7142 227° Southwest 402 463 32,000  Level Houston Center
08:37PM 31.0731 -93.8100 227° Southwest 403 464 32,000  Level Houston Center
08:38PM 30.9961 -93.9044 226° Southwest 401 461 32,000  Level Houston Center
08:39PM 30.9181 -94.0008 227° Southwest 404 465 32,000  Level Houston Center
08:40PM 30.8406 -94.0953 226° Southwest 402 463 32,000 -1,380 Level Houston Center
08:41PM 30.7489 -94.2075 226° Southwest 399 459 29,200 -2,640 Descending Houston Center
08:42PM 30.6742 -94.2992 227° Southwest 391 450 26,600 -2,400 Descending Houston Center
08:43PM 30.6033 -94.3853 226° Southwest 369 425 24,200 -2,340 Descending Houston Center
08:44PM 30.5758 -94.4217 229° Southwest 360 414 23,300 -2,280 Descending Houston Center
08:44PM 30.5419 -94.4600 224° Southwest 357 411 22,200 -2,220 Descending Houston Center
08:45PM 30.4717 -94.5517 228° Southwest 343 395 19,600 -2,340 Descending Houston Center
08:46PM 30.4200 -94.6336 234° Southwest 329 379 17,500 -2,340 Descending Houston Center
08:47PM 30.3650 -94.7158 232° Southwest 318 366 15,300 -2,220 Descending Houston Center
08:48PM 30.3122 -94.8025 235° Southwest 311 358 13,100 -2,100 Descending Houston Center
08:49PM 30.2608 -94.8792 232° Southwest 301 346 11,100 -1,560 Descending Houston Center
08:50PM 30.2094 -94.9581 233° Southwest 298 343 10,000 -900 Descending Houston Center
08:51PM 30.2061 -94.9642 238° Southwest 300 345 10,000  Level Houston Center
08:52PM 30.1564 -95.0411 233° Southwest 300 345 10,000  Level Houston Center
08:52PM 30.0936 -95.0886 213° Southwest 295 339 10,000  Level Houston Center
08:53PM 30.0736 -95.0981 202° Southwest 295 339 10,000 -360 Level Houston Center
08:54PM 30.0089 -95.1256 200° South 263 303 9,600 -660 Descending Houston Center
08:55PM 29.9461 -95.1525 200° South 228 262 8,800 -900 Descending Houston Center
08:55PM 29.8936 -95.1758 201° Southwest 207 238 7,900 -1,020 Descending Houston Center
08:56PM 29.8847 -95.1789 197° South 212 244 7,600 -900 Descending Houston Center
08:56PM 29.8392 -95.1994 201° Southwest 207 238 7,000 -600 Descending Houston Center
08:57PM 29.8306 -95.2019 194° South 209 241 7,000 -840 Level Houston Center
08:57PM 29.7825 -95.2231 201° Southwest 210 242 6,200 -900 Descending Houston Center
08:58PM 29.7761 -95.2256 199° South 210 242 6,100 -240 Descending Houston Center
08:58PM 29.7319 -95.2436 200° South 216 249 6,000 -120 Descending Houston Center
08:59PM 29.7094 -95.2547 203° Southwest 215 247 6,000  Level Houston Center
09:00PM 29.6714 -95.2703 200° South 215 247 6,000  Level Houston Center
09:00PM 29.6575 -95.2858 224° Southwest 221 254 6,000 -300 Level Houston Center
09:01PM 29.6397 -95.3367 248° West 246 283 5,700 -540 Descending Houston Center
09:01PM 29.6358 -95.3550 256° West 238 274 5,500 -1,140 Descending Houston Center
09:02PM 29.6444 -95.4106 280° West 257 296 4,600 -1,200 Descending Houston Center
09:02PM 29.6575 -95.4244 317° Northwest 257 296 4,300 -1,320 Descending Houston Center
09:03PM 29.6942 -95.4719 312° West 267 307 3,300 -1,260 Descending Houston Center
09:03PM 29.7075 -95.4878 314° West 264 304 3,000 -300 Descending Houston Center
09:04PM 29.7511 -95.4747 15° North 216 249 3,000  Level Houston Center
09:04PM 29.7700 -95.4517 47° Northeast 230 265 3,000 -360 Level Houston Center
09:05PM 29.7694 -95.4222 91° East 193 222 2,700 -1,020 Descending Houston Center
09:05PM 29.7503 -95.4033 139° Southeast 202 232 2,000 -720 Descending Houston Center
09:06PM 29.7325 -95.3856 139° Southeast 167 192 2,000  Level Houston Center
09:06PM 29.7181 -95.3672 132° Southeast 178 205 2,000 -360 Level Houston Center
09:07PM 29.7039 -95.3481 130° Southeast 120 138 1,600 -600 Descending Houston Center
09:07PM 29.6967 -95.3408 139° Southeast 135 155 1,400 -600 Descending Houston Center
09:08PM 29.6828 -95.3242 134° Southeast 108 124 1,100 -720 Descending Houston Center
09:08PM 29.6722 -95.3117 134° Southeast 127 146 700 -720 Descending Houston Center
09:09PM 29.6544 -95.2917 136° Southeast 131 151 300 -540 Descending Houston Center
09:09PM 29.6447 -95.2794 132° Southeast 127 146 200 -240 Descending Houston Center